| time (UTC) | temp C | wind direction | speed KPH | gust KPH | rain 1hr cm | rain 24hr cm | rain mn cm | humidity % | barometer mb |
| 20260507223048 | -17 | 360 | 0.0 | 0.0 | 0.00 | 0.00 | 0.00 | 1012.0 | |
| 20260507221541 | -17 | 360 | 0.0 | 0.0 | 0.00 | 0.00 | 0.00 | 1012.0 | |
| 20260507220036 | -17 | 360 | 0.0 | 0.0 | 0.00 | 0.00 | 0.00 | 1012.1 | |
| 20260507214531 | -17 | 360 | 0.0 | 0.0 | 0.00 | 0.00 | 0.00 | 1012.1 | |
| 20260507213028 | -17 | 360 | 0.0 | 0.0 | 0.00 | 0.00 | 0.00 | 1012.2 | |
| 20260507211523 | -17 | 360 | 0.0 | 0.0 | 0.00 | 0.00 | 0.00 | 1012.2 | |
| 20260507210018 | -17 | 360 | 0.0 | 0.0 | 0.00 | 0.00 | 0.00 | 1012.1 | |
| 20260507204514 | -17 | 360 | 0.0 | 0.0 | 0.00 | 0.00 | 0.00 | 1011.9 | |
| 20260507203013 | -17 | 360 | 0.0 | 1.6 | 0.00 | 0.00 | 0.00 | 1011.9 | |
| 20260507201505 | -17 | 360 | 0.0 | 0.0 | 0.00 | 0.00 | 0.00 | 1011.8 | |
| 20260507200004 | -17 | 360 | 0.0 | 0.0 | 0.00 | 0.00 | 0.00 | 1011.5 | |
| 20260507194504 | -17 | 360 | 0.0 | 0.0 | 0.00 | 0.00 | 0.00 | 1011.4 | |
| 20260507193003 | -17 | 360 | 0.0 | 0.0 | 0.00 | 0.00 | 0.00 | 1011.3 | |
| 20260507191503 | -17 | 360 | 0.0 | 0.0 | 0.00 | 0.00 | 0.00 | 1011.2 | |
| 20260507190004 | -17 | 360 | 0.0 | 0.0 | 0.00 | 0.00 | 0.00 | 1011.2 | |
| 20260507184501 | -17 | 360 | 0.0 | 0.0 | 0.00 | 0.00 | 0.00 | 1011.1 | |
| 20260507183002 | -17 | 360 | 0.0 | 3.2 | 0.00 | 0.00 | 0.00 | 1011.1 | |
| 20260507181503 | -17 | 328 | 0.0 | 4.8 | 0.00 | 0.00 | 0.00 | 1011.1 | |
| 20260507180100 | -17 | 281 | 0.0 | 3.2 | 0.00 | 0.00 | 0.00 | 1011.1 | |
| 20260507174607 | -17 | 11 | 0.0 | 9.7 | 0.00 | 0.00 | 0.00 | 1010.9 | |
| 20260507173102 | -17 | 51 | 0.0 | 8.0 | 0.00 | 0.00 | 0.00 | 1011.0 | |
| 20260507171605 | -17 | 291 | 0.0 | 6.4 | 0.00 | 0.00 | 0.00 | 1011.0 | |
| 20260507170057 | -17 | 306 | 0.0 | 0.0 | 0.00 | 0.00 | 0.00 | 1011.0 | |
| 20260507164557 | -17 | 332 | 0.0 | 6.4 | 0.00 | 0.00 | 0.00 | 1011.1 | |
| 20260507163113 | -17 | 90 | 1.6 | 6.4 | 0.00 | 0.00 | 0.00 | 1011.1 | |
| 20260507161656 | -17 | 46 | 3.2 | 6.4 | 0.00 | 0.00 | 0.00 | 1011.0 | |
| 20260507160056 | -17 | 61 | 3.2 | 11.3 | 0.00 | 0.00 | 0.00 | 1011.1 | |
| 20260507154555 | -17 | 78 | 1.6 | 8.0 | 0.00 | 0.00 | 0.00 | 1011.1 | |
| 20260507153054 | -17 | 74 | 1.6 | 8.0 | 0.00 | 0.00 | 0.00 | 1011.1 | |
| 20260507151554 | -17 | 25 | 1.6 | 8.0 | 0.00 | 0.00 | 0.00 | 1011.1 | |
| 20260507150053 | -17 | 48 | 0.0 | 9.7 | 0.00 | 0.00 | 0.00 | 1011.2 | |
| 20260507144615 | -17 | 63 | 0.0 | 8.0 | 0.00 | 0.00 | 0.00 | 1011.2 | |
| 20260507143054 | -17 | 64 | 1.6 | 8.0 | 0.00 | 0.00 | 0.00 | 1011.2 | |
| 20260507141612 | -17 | 30 | 1.6 | 8.0 | 0.00 | 0.00 | 0.00 | 1011.2 | |
| 20260507140051 | -17 | 66 | 0.0 | 0.0 | 0.00 | 0.00 | 0.00 | 1011.3 | |
| 20260507134551 | -17 | 51 | 0.0 | 0.0 | 0.00 | 0.00 | 0.00 | 1011.4 | |
| 20260507133050 | -17 | 49 | 0.0 | 0.0 | 0.00 | 0.00 | 0.00 | 1011.4 | |
| 20260507131549 | -17 | 16 | 0.0 | 0.0 | 0.00 | 0.00 | 0.00 | 1011.4 | |
| 20260507130051 | -17 | 336 | 0.0 | 0.0 | 0.00 | 0.00 | 0.00 | 1011.4 | |
| 20260507124548 | -17 | 57 | 0.0 | 0.0 | 0.00 | 0.00 | 0.00 | 1011.4 | |
| 20260507123049 | -17 | 18 | 0.0 | 0.0 | 0.00 | 0.00 | 0.00 | 1011.5 | |
| 20260507121542 | -17 | 334 | 0.0 | 0.0 | 0.00 | 0.00 | 0.00 | 1011.5 | |
| 20260507120037 | -17 | 70 | 0.0 | 0.0 | 0.00 | 0.00 | 0.00 | 1011.5 | |
| 20260507114535 | -17 | 342 | 0.0 | 0.0 | 0.00 | 0.00 | 0.00 | 1011.5 | |
| 20260507113029 | -17 | 5 | 0.0 | 0.0 | 0.00 | 0.00 | 0.00 | 1011.5 | |
| 20260507111535 | -17 | 344 | 0.0 | 0.0 | 0.00 | 0.00 | 0.00 | 1011.5 | |
| 20260507110020 | -17 | 338 | 0.0 | 0.0 | 0.00 | 0.00 | 0.00 | 1011.5 | |
| 20260507104519 | -17 | 53 | 0.0 | 8.0 | 0.00 | 0.00 | 0.00 | 1011.5 | |
| 20260507103010 | -17 | 60 | 6.4 | 11.3 | 0.00 | 0.00 | 0.00 | 1011.7 | |
| 20260507101507 | -17 | 5 | 0.0 | 6.4 | 0.00 | 0.00 | 0.00 | 1011.7 | |
| 20260507100002 | -17 | 347 | 0.0 | 0.0 | 0.00 | 0.00 | 0.00 | 1011.7 | |
| 20260507094558 | -17 | 338 | 0.0 | 0.0 | 0.00 | 0.00 | 0.00 | 1011.7 | |
| 20260507093059 | -17 | 39 | 1.6 | 8.0 | 0.00 | 0.00 | 0.00 | 1011.6 | |
| 20260507091554 | -17 | 219 | 0.0 | 4.8 | 0.00 | 0.00 | 0.00 | 1011.7 | |
| 20260507090044 | -17 | 193 | 0.0 | 4.8 | 0.00 | 0.00 | 0.00 | 1011.8 | |
| 20260507084544 | -17 | 151 | 0.0 | 3.2 | 0.00 | 0.00 | 0.00 | 1011.7 | |
| 20260507083036 | -17 | 144 | 0.0 | 0.0 | 0.00 | 0.00 | 0.00 | 1011.6 | |
| 20260507081531 | -17 | 76 | 0.0 | 0.0 | 0.00 | 0.00 | 0.00 | 1011.5 | |
| 20260507080027 | -17 | 76 | 0.0 | 0.0 | 0.00 | 0.00 | 0.00 | 1011.5 | |
| 20260507074522 | -17 | 76 | 0.0 | 0.0 | 0.00 | 0.00 | 0.00 | 1011.5 | |
| 20260507073018 | -17 | 47 | 0.0 | 0.0 | 0.00 | 0.00 | 0.00 | 1011.5 | |
| 20260507071513 | -17 | 47 | 0.0 | 0.0 | 0.00 | 0.00 | 0.00 | 1011.4 | |
| 20260507070013 | -17 | 47 | 0.0 | 0.0 | 0.00 | 0.00 | 0.00 | 1011.3 | |
| 20260507064505 | -17 | 47 | 0.0 | 0.0 | 0.00 | 0.00 | 0.00 | 1011.3 | |
| 20260507063100 | -17 | 47 | 0.0 | 0.0 | 0.00 | 0.00 | 0.00 | 1011.3 | |
| 20260507061555 | -17 | 47 | 0.0 | 0.0 | 0.00 | 0.00 | 0.00 | 1011.2 | |
| 20260507060056 | -17 | 47 | 0.0 | 0.0 | 0.00 | 0.00 | 0.00 | 1011.0 | |
| 20260507054550 | -17 | 47 | 0.0 | 0.0 | 0.00 | 0.00 | 0.00 | 1010.9 | |
| 20260507053047 | -17 | 47 | 0.0 | 0.0 | 0.00 | 0.00 | 0.00 | 1010.8 | |
| 20260507051538 | -17 | 47 | 0.0 | 0.0 | 0.00 | 0.00 | 0.00 | 1010.8 | |
| 20260507050034 | -17 | 47 | 0.0 | 0.0 | 0.00 | 0.00 | 0.00 | 1010.8 | |
| 20260507044545 | -17 | 47 | 0.0 | 0.0 | 0.00 | 0.00 | 0.00 | 1010.6 | |
| 20260507043024 | -17 | 47 | 0.0 | 0.0 | 0.00 | 0.00 | 0.00 | 1010.6 | |
| 20260507041520 | -17 | 47 | 0.0 | 0.0 | 0.00 | 0.00 | 0.00 | 1010.6 | |
| 20260507040016 | -17 | 47 | 0.0 | 0.0 | 0.00 | 0.00 | 0.00 | 1010.5 | |
| 20260507034512 | -17 | 47 | 0.0 | 0.0 | 0.00 | 0.00 | 0.00 | 1010.5 | |
| 20260507033008 | -17 | 47 | 0.0 | 0.0 | 0.00 | 0.00 | 0.00 | 1010.4 | |
| 20260507031503 | -17 | 47 | 0.0 | 0.0 | 0.00 | 0.00 | 0.00 | 1010.4 | |
| 20260507030104 | -17 | 47 | 0.0 | 0.0 | 0.00 | 0.00 | 0.00 | 1010.4 | |
| 20260507024558 | -17 | 47 | 0.0 | 0.0 | 0.00 | 0.00 | 0.00 | 1010.3 | |
| 20260507023050 | -17 | 47 | 0.0 | 0.0 | 0.00 | 0.00 | 0.00 | 1010.3 | |
| 20260507021546 | -17 | 47 | 0.0 | 0.0 | 0.00 | 0.00 | 0.00 | 1010.2 | |
| 20260507020048 | -17 | 47 | 0.0 | 0.0 | 0.00 | 0.00 | 0.00 | 1010.1 | |
| 20260507014537 | -17 | 47 | 0.0 | 0.0 | 0.00 | 0.00 | 0.00 | 1010.1 | |
| 20260507013033 | -17 | 47 | 0.0 | 0.0 | 0.00 | 0.00 | 0.00 | 1010.1 | |
| 20260507011529 | -17 | 47 | 0.0 | 0.0 | 0.00 | 0.00 | 0.00 | 1010.1 | |
| 20260507010028 | -17 | 47 | 0.0 | 0.0 | 0.00 | 0.00 | 0.00 | 1010.1 | |
| 20260507004521 | -17 | 47 | 0.0 | 0.0 | 0.00 | 0.00 | 0.00 | 1010.1 | |
| 20260507003020 | -17 | 47 | 0.0 | 0.0 | 0.00 | 0.00 | 0.00 | 1010.2 | |
| 20260507001520 | -17 | 47 | 0.0 | 0.0 | 0.00 | 0.00 | 0.00 | 1010.1 | |
| 20260507000011 | -17 | 47 | 0.0 | 0.0 | 0.00 | 0.00 | 0.00 | 1010.2 | |
| 20260506234506 | -17 | 47 | 0.0 | 0.0 | 0.00 | 0.00 | 0.00 | 1010.1 | |
| 20260506233102 | -17 | 47 | 0.0 | 0.0 | 0.00 | 0.00 | 0.00 | 1010.1 | |
| 20260506231553 | -17 | 47 | 0.0 | 0.0 | 0.00 | 0.00 | 0.00 | 1010.0 | |
| 20260506230048 | -17 | 47 | 0.0 | 0.0 | 0.00 | 0.00 | 0.00 | 1010.1 | |
| 20260506224558 | -17 | 47 | 0.0 | 0.0 | 0.00 | 0.00 | 0.00 | 1010.0 |